Rayong, Thailand

3:58 AM +07 on December 19, 2017 (GMT +0700)
U-Taphao International

Weather History for VTBU - October, 2011

Change the Weather History Date:

Tuesday, October 11, 2011

  Actual Average Record
Temperature  
Mean Temperature 80 °F -  
Max Temperature 84 °F 87 °F 95 °F (2005)
Min Temperature 77 °F 76 °F 73 °F (2002)
Cooling Degree Days 16    
Growing Degree Days 30 (Base 50)    
Moisture  
Dew Point 77 °F    
Average Humidity 91    
Maximum Humidity 100    
Minimum Humidity 79    
Precipitation  
Precipitation 0.00 in - - ()
Sea Level Pressure  
Sea Level Pressure 29.82 in    
Wind  
Wind Speed 2 mph ()    
Max Wind Speed 6 mph    
Max Gust Speed -    
Visibility 2.3 miles    
Events Rain , Thunderstorm    
Averages and records for this station are not official NWS values.
T = Trace of Precipitation, MM = Missing Value Source: Averaged Metar Reports

Daily Weather History Graph

Daily Weather History Graph

Search for Another Location

Airport or City:

Trip Planner

Search our weather history database for the weather conditions in past years. The results will help you decide how hot, cold, wet, or windy it might be!

Date:

Astronomy

Oct. 11, 2011 Rise Set
Actual Time 6:04 AM +07 5:58 PM +07
Civil Twilight 5:42 AM +07 6:19 PM +07
Nautical Twilight 5:18 AM +07 6:44 PM +07
Astronomical Twilight 4:53 AM +07 7:09 PM +07
Moon 5:20 PM +07 (10/11) 5:12 AM +07 (10/11)
Length of Visible Light 12h 36m
Length of Day
11h 54m
Waxing Gibbous, 99% of the Moon is Illuminated
Oct 11
Waxing Gibbous
Oct 12
Full
Oct 20
Last Quarter
Oct 27
New
Nov 2
First Quarter

Hourly Weather History & Observations

Time (+07) Temp. Heat Index Dew Point Humidity Pressure Visibility Wind Dir Wind Speed Gust Speed Precip Events Conditions
12:00 AM 78.8 °F - 77.0 °F 94% 29.86 in 3.1 mi Calm Calm - N/A   Mostly Cloudy
12:30 AM 78.8 °F - 77.0 °F 94% 29.83 in 3.1 mi NNE 3.5 mph - N/A   Mostly Cloudy
1:00 AM 78.8 °F - 77.0 °F 94% 29.83 in 3.1 mi Calm Calm - N/A   Mostly Cloudy
1:30 AM 78.8 °F - 77.0 °F 94% 29.83 in 3.1 mi Calm Calm - N/A   Mostly Cloudy
2:00 AM 77.0 °F - 75.2 °F 94% 29.80 in 3.1 mi NNE 4.6 mph - N/A   Mostly Cloudy
2:30 AM 77.0 °F - 75.2 °F 94% 29.80 in 3.1 mi Calm Calm - N/A   Mostly Cloudy
3:00 AM 77.0 °F - 75.2 °F 94% 29.80 in 3.1 mi Calm Calm - N/A   Mostly Cloudy
3:30 AM 77.0 °F - 75.2 °F 94% 29.80 in 3.1 mi Calm Calm - N/A   Mostly Cloudy
4:00 AM 77.0 °F - 75.2 °F 94% 29.80 in 3.1 mi Calm Calm - N/A Thunderstorm Thunderstorm
4:30 AM 77.0 °F - 75.2 °F 94% 29.80 in 3.1 mi Calm Calm - N/A Thunderstorm Thunderstorm
5:00 AM 78.8 °F - 77.0 °F 94% 29.80 in 3.1 mi Calm Calm - N/A Thunderstorm Thunderstorm
5:30 AM 78.8 °F - 77.0 °F 94% 29.80 in 3.1 mi Calm Calm - N/A Thunderstorm Thunderstorm
6:00 AM 78.8 °F - 77.0 °F 94% 29.80 in 3.1 mi Calm Calm - N/A   Mostly Cloudy
6:30 AM 77.0 °F - 77.0 °F 100% 29.80 in 2.5 mi Calm Calm - N/A   Mostly Cloudy
7:00 AM 77.0 °F - 77.0 °F 100% 29.83 in 1.9 mi Calm Calm - N/A   Mostly Cloudy
7:30 AM 78.8 °F - 77.0 °F 94% 29.83 in 1.9 mi NNW 4.6 mph - N/A   Mostly Cloudy
8:00 AM 78.8 °F - 77.0 °F 94% 29.86 in 1.9 mi NNE 2.3 mph - N/A   Mostly Cloudy
8:30 AM 78.8 °F - 77.0 °F 94% 29.86 in 1.9 mi NE 3.5 mph - N/A   Mostly Cloudy
9:00 AM 80.6 °F 87.1 °F 77.0 °F 89% 29.86 in 1.9 mi ENE 3.5 mph - N/A   Mostly Cloudy
9:30 AM 80.6 °F 87.1 °F 77.0 °F 89% 29.86 in 1.9 mi ENE 3.5 mph - N/A Rain Light Rain Showers
10:00 AM 80.6 °F 87.1 °F 77.0 °F 89% 29.86 in 2.5 mi East 3.5 mph - N/A   Mostly Cloudy
10:30 AM 80.6 °F 87.1 °F 77.0 °F 89% 29.86 in 2.5 mi ESE 4.6 mph - N/A   Mostly Cloudy
11:00 AM 84.2 °F 94.1 °F 77.0 °F 79% 29.86 in 3.1 mi ESE 3.5 mph - N/A   Mostly Cloudy
11:30 AM 84.2 °F 94.1 °F 77.0 °F 79% 29.86 in 3.1 mi SSE 4.6 mph - N/A   Mostly Cloudy
12:00 PM 84.2 °F 94.1 °F 77.0 °F 79% 29.83 in 3.7 mi WSW 5.8 mph - N/A   Mostly Cloudy
12:30 PM 84.2 °F 94.1 °F 77.0 °F 79% 29.83 in 3.7 mi SE 4.6 mph - N/A Thunderstorm Thunderstorm
1:00 PM 84.2 °F 96.1 °F 78.8 °F 84% 29.80 in 3.7 mi SE 4.6 mph - N/A Thunderstorm Thunderstorm
1:30 PM 82.4 °F 92.4 °F 78.8 °F 89% 29.80 in 3.1 mi SE 4.6 mph - N/A Thunderstorm Thunderstorm
2:00 PM 82.4 °F 90.9 °F 77.0 °F 84% 29.77 in 2.5 mi SE 4.6 mph - N/A   Mostly Cloudy
2:30 PM 82.4 °F 92.4 °F 78.8 °F 89% 29.77 in 1.9 mi SSE 4.6 mph - N/A   Mostly Cloudy
3:00 PM 84.2 °F 94.1 °F 77.0 °F 79% 29.77 in 1.9 mi ESE 3.5 mph - N/A   Mostly Cloudy
3:30 PM 84.2 °F 94.1 °F 77.0 °F 79% 29.77 in 1.9 mi SSE 3.5 mph - N/A   Mostly Cloudy
4:00 PM 84.2 °F 94.1 °F 77.0 °F 79% 29.77 in 1.9 mi SSE 4.6 mph - N/A   Mostly Cloudy
4:30 PM 84.2 °F 94.1 °F 77.0 °F 79% 29.77 in 1.9 mi ESE 3.5 mph - N/A   Mostly Cloudy
5:00 PM 82.4 °F 92.4 °F 78.8 °F 89% 29.77 in 1.9 mi NE 3.5 mph - N/A Rain , Thunderstorm Light Thunderstorms and Rain
5:30 PM 78.8 °F - 77.0 °F 94% 29.77 in 1.2 mi NE 4.6 mph - N/A Rain , Thunderstorm Light Thunderstorms and Rain
6:00 PM 78.8 °F - 77.0 °F 94% 29.77 in 1.2 mi ESE 2.3 mph - N/A Rain Light Rain
6:30 PM 78.8 °F - 77.0 °F 94% 29.77 in 1.2 mi NNW 2.3 mph - N/A Rain Light Rain
7:00 PM 78.8 °F - 77.0 °F 94% 29.80 in 1.2 mi North 2.3 mph - N/A   Mostly Cloudy
7:30 PM 78.8 °F - 77.0 °F 94% 29.80 in 1.2 mi Calm Calm - N/A   Mostly Cloudy
8:00 PM 78.8 °F - 77.0 °F 94% 29.83 in 1.2 mi North 2.3 mph - N/A   Mostly Cloudy
8:30 PM 78.8 °F - 77.0 °F 94% 29.83 in 1.2 mi NW 3.5 mph - N/A   Mostly Cloudy
9:00 PM 78.8 °F - 77.0 °F 94% 29.83 in 1.2 mi North 2.3 mph - N/A   Mostly Cloudy
9:30 PM 78.8 °F - 77.0 °F 94% 29.86 in 1.2 mi NNW 2.3 mph - N/A   Mostly Cloudy
10:00 PM 78.8 °F - 77.0 °F 94% 29.86 in 1.2 mi South 3.5 mph - N/A   Mostly Cloudy
10:30 PM 78.8 °F - 77.0 °F 94% 29.86 in 1.2 mi Calm Calm - N/A   Mostly Cloudy
11:00 PM 78.8 °F - 77.0 °F 94% 29.86 in 1.2 mi Calm Calm - N/A   Mostly Cloudy
11:30 PM 78.8 °F - 77.0 °F 94% 29.86 in 1.9 mi Calm Calm - N/A Rain Light Rain